Location: Miss�
(46.9484°N, 0.1922°W)
Time: 11:10:30
(UTC+00:00)

Meteor 1-20 Rocket - Pass Details

Date: 02 March 2021
Orbit: 820 x 891 km, 81.2° (Epoch: 10 April)

Event Time Altitude Azimuth Distance (km) Brightness Sun altitude
Rises 18:17:34 0° 178° (S) 3,339 7.3 -5.9°
Reaches altitude 10° 18:19:59 10° 174° (S) 2,410 6.6 -6.3°
Maximum altitude 18:25:19 60° 96° (E) 939 4.2 -7.2°
Drops below altitude 10° 18:30:43 10° 18° (NNE) 2,441 6.4 -8.1°
Sets 18:33:10 0° 15° (NNE) 3,386 7.2 -8.5°
